Погода в Джалинде

Россия / Амурская область     53°29′17″N   123°53′45″E
темп.,
°C
ветер,
м/с
пор.,
м/с
влажн.,
%
обл.,
%
осадки,
мм/ч
давл.,
гПа
погр.,
м
26 февраля, пт
пт2600:00−24зсз119965 0.0 103120
03:00−26зсз1210076 0.0 103219
06:00−29зсз229717 0.0 103419
09:00−27зсз11928 0.0 103550
12:00−19з228430 0.0 1033344
15:00−16з118065 0.0 1031408
18:00−19вюв2289100 0.0 103022
21:00−20в2392100 0.0 103078
27 февраля, сб
сб2700:00−19в41289100 0.0 1029367
03:00−18вюв61395100 0.3 1025569
06:00−18вюв71395100 1.4 1021739
09:00−17вюв71494100 2.6 1017856
12:00−16вюв71293100 0.9 1014866
15:00−16в5994100 2.1 1012726
18:00−16ссв2595100 0.6 1014310
21:00−22сз229695 0.6 101720
28 февраля, вс
вс2800:00−25зсз22963 0.0 101923
03:00−24зсз4138618 0.0 1022381
06:00−23сз515740 0.0 1025798
09:00−22сз614750 0.0 10271030
12:00−18сз611690 0.0 10281340
15:00−17сз6106933 0.0 10291560
18:00−20сз31079100 0.0 1031378
21:00−26ссз228150 0.0 103419
1 марта, пн
пн100:00−27зсз2283100 0.0 103520
03:00−28зсз2286100 0.0 103725
06:00−30зсз238481 0.0 103723
09:00−28зсз238440 0.0 1038116
12:00−22зсз47780 0.0 1035686
15:00−20зсз457321 0.0 10341336
18:00−23зсз228797 0.0 103321
21:00−27с118971 0.0 103519
2 марта, вт
вт200:00−27юз0095100 0.1 103519
03:00−31ссз019198 0.1 103419
06:00−31ссз118296 0.0 103419
09:00−29сз118097 0.0 103335
12:00−21зюз117799 0.0 1031385
15:00−19зюз117089 0.0 1028937
18:00−24з118299 0.0 102820
21:00−28ссв118781 0.0 103019